Year,Month,Day,Hour,Minute,Value (Times are PST for temperature in C)
2018,02,20,14,17,2.60
2018,02,20,14,18,2.60
2018,02,20,14,19,2.60
2018,02,20,14,20,2.60
2018,02,20,14,21,2.60
2018,02,20,14,22,2.60
2018,02,20,14,23,2.50
2018,02,20,14,24,2.50
2018,02,20,14,25,2.50
2018,02,20,14,26,2.50
2018,02,20,14,27,2.50
2018,02,20,14,28,2.50
2018,02,20,14,29,2.50
2018,02,20,14,30,2.50
2018,02,20,14,31,2.50
2018,02,20,14,32,2.50
2018,02,20,14,33,2.50
2018,02,20,14,34,2.50
2018,02,20,14,35,2.50
2018,02,20,14,36,2.60
2018,02,20,14,37,2.60
2018,02,20,14,38,2.60
2018,02,20,14,39,2.60
2018,02,20,14,40,2.60
2018,02,20,14,41,2.70
2018,02,20,14,42,2.70
2018,02,20,14,43,2.70
2018,02,20,14,44,2.70
2018,02,20,14,45,2.80
2018,02,20,14,46,2.80
2018,02,20,14,47,2.90
2018,02,20,14,48,2.90
2018,02,20,14,49,3.00
2018,02,20,14,50,3.00
2018,02,20,14,51,3.10
2018,02,20,14,52,3.10
2018,02,20,14,53,3.10
2018,02,20,14,54,3.10
2018,02,20,14,55,3.10
2018,02,20,14,56,3.10
2018,02,20,14,57,3.10
2018,02,20,14,58,3.10
2018,02,20,14,59,3.00
2018,02,20,15,00,3.00
2018,02,20,15,01,2.90
2018,02,20,15,02,2.90
2018,02,20,15,03,2.90
2018,02,20,15,04,2.90
2018,02,20,15,05,2.80
2018,02,20,15,06,2.80
2018,02,20,15,07,2.80
2018,02,20,15,08,2.80
2018,02,20,15,09,2.80
2018,02,20,15,10,2.70
2018,02,20,15,11,2.70
2018,02,20,15,12,2.70
2018,02,20,15,13,2.70
2018,02,20,15,14,2.70
2018,02,20,15,15,2.70
2018,02,20,15,16,2.80
2018,02,20,15,17,2.80
2018,02,20,15,18,2.90
2018,02,20,15,19,2.90
2018,02,20,15,20,3.00
2018,02,20,15,21,3.10
2018,02,20,15,22,3.10
2018,02,20,15,23,3.20
2018,02,20,15,24,3.20
2018,02,20,15,25,3.20
2018,02,20,15,26,3.20
2018,02,20,15,27,3.20
2018,02,20,15,28,3.20
2018,02,20,15,29,3.20
2018,02,20,15,30,3.20
2018,02,20,15,31,3.20
2018,02,20,15,32,3.20
2018,02,20,15,33,3.20
2018,02,20,15,34,3.20
2018,02,20,15,35,3.20
2018,02,20,15,36,3.30
2018,02,20,15,37,3.30
2018,02,20,15,38,3.30
2018,02,20,15,39,3.40
2018,02,20,15,40,3.40
2018,02,20,15,41,3.40
2018,02,20,15,42,3.40
2018,02,20,15,43,3.40
2018,02,20,15,44,3.40
2018,02,20,15,45,3.40
2018,02,20,15,46,3.40
2018,02,20,15,47,3.40
2018,02,20,15,48,3.40
2018,02,20,15,49,3.40
2018,02,20,15,50,3.40
2018,02,20,15,51,3.40
2018,02,20,15,52,3.50
2018,02,20,15,53,3.50
2018,02,20,15,54,3.50
2018,02,20,15,55,3.60
2018,02,20,15,56,3.60
2018,02,20,15,57,3.60
2018,02,20,15,58,3.60
2018,02,20,15,59,3.60
2018,02,20,16,00,3.60
2018,02,20,16,01,3.60
2018,02,20,16,02,3.60
2018,02,20,16,03,3.60
2018,02,20,16,04,3.60
2018,02,20,16,05,3.60
2018,02,20,16,06,3.60
2018,02,20,16,07,3.50
2018,02,20,16,08,3.50
2018,02,20,16,09,3.40
2018,02,20,16,10,3.30
2018,02,20,16,11,3.30
2018,02,20,16,12,3.20
2018,02,20,16,13,3.20
2018,02,20,16,14,3.20
2018,02,20,16,15,3.10
2018,02,20,16,16,3.10
2018,02,20,16,17,3.10
2018,02,20,16,18,3.10
2018,02,20,16,19,3.10
2018,02,20,16,20,3.00
2018,02,20,16,21,3.00
2018,02,20,16,22,3.00
2018,02,20,16,23,2.90
2018,02,20,16,24,2.90
2018,02,20,16,25,2.90
2018,02,20,16,26,2.80
2018,02,20,16,27,2.80
2018,02,20,16,28,2.80
2018,02,20,16,29,2.80
2018,02,20,16,30,2.80
2018,02,20,16,31,2.80
2018,02,20,16,32,2.70
2018,02,20,16,33,2.70
2018,02,20,16,34,2.70
2018,02,20,16,35,2.70
2018,02,20,16,36,2.70
2018,02,20,16,37,2.70
2018,02,20,16,38,2.70
2018,02,20,16,39,2.70
2018,02,20,16,40,2.60
2018,02,20,16,41,2.60
2018,02,20,16,42,2.60
2018,02,20,16,43,2.60
2018,02,20,16,44,2.60
2018,02,20,16,45,2.50
2018,02,20,16,46,2.50
2018,02,20,16,47,2.50
2018,02,20,16,48,2.50
2018,02,20,16,49,2.50
2018,02,20,16,50,2.50
2018,02,20,16,51,2.50
2018,02,20,16,52,2.50
2018,02,20,16,53,2.40
2018,02,20,16,54,2.40
2018,02,20,16,55,2.40
2018,02,20,16,56,2.40
2018,02,20,16,57,2.40
2018,02,20,16,58,2.40
2018,02,20,16,59,2.40
2018,02,20,17,00,2.40
2018,02,20,17,01,2.40
2018,02,20,17,02,2.40
2018,02,20,17,03,2.40
2018,02,20,17,04,2.40
2018,02,20,17,05,2.40
2018,02,20,17,06,2.40
2018,02,20,17,07,2.40
2018,02,20,17,08,2.40
2018,02,20,17,09,2.40
2018,02,20,17,10,2.50
2018,02,20,17,11,2.50
2018,02,20,17,12,2.50
2018,02,20,17,13,2.50
2018,02,20,17,14,2.50
2018,02,20,17,15,2.50
2018,02,20,17,16,2.50
2018,02,20,17,17,2.50
2018,02,20,17,18,2.50
2018,02,20,17,19,2.50
2018,02,20,17,20,2.40
2018,02,20,17,21,2.40
2018,02,20,17,22,2.40
2018,02,20,17,23,2.30
2018,02,20,17,24,2.30
2018,02,20,17,25,2.30
2018,02,20,17,26,2.30
2018,02,20,17,27,2.20
2018,02,20,17,28,2.20
2018,02,20,17,29,2.20
2018,02,20,17,30,2.20
2018,02,20,17,31,2.10
2018,02,20,17,32,2.10
2018,02,20,17,33,2.10
2018,02,20,17,34,2.10
2018,02,20,17,35,2.00
2018,02,20,17,36,2.00
2018,02,20,17,37,1.90
2018,02,20,17,38,1.90
2018,02,20,17,39,1.90
2018,02,20,17,40,1.90
2018,02,20,17,41,1.90
2018,02,20,17,42,1.80
2018,02,20,17,43,1.80
2018,02,20,17,44,1.80
2018,02,20,17,45,1.80
2018,02,20,17,46,1.80
2018,02,20,17,47,1.70
2018,02,20,17,48,1.70
2018,02,20,17,49,1.70
2018,02,20,17,50,1.70
2018,02,20,17,51,1.70
2018,02,20,17,52,1.60
2018,02,20,17,53,1.60
2018,02,20,17,54,1.60
2018,02,20,17,55,1.60
2018,02,20,17,56,1.60
2018,02,20,17,57,1.60
2018,02,20,17,58,1.50
2018,02,20,17,59,1.50
2018,02,20,18,00,1.50
2018,02,20,18,01,1.40
2018,02,20,18,02,1.40
2018,02,20,18,03,1.40
2018,02,20,18,04,1.40
2018,02,20,18,05,1.40
2018,02,20,18,06,1.40
2018,02,20,18,07,1.40
2018,02,20,18,08,1.30
2018,02,20,18,09,1.30
2018,02,20,18,10,1.30
2018,02,20,18,11,1.30
2018,02,20,18,12,1.30
2018,02,20,18,13,1.30
2018,02,20,18,14,1.30
2018,02,20,18,15,1.30
2018,02,20,18,16,1.30
2018,02,20,18,17,1.30
2018,02,20,18,18,1.30
2018,02,20,18,19,1.20
2018,02,20,18,20,1.20
2018,02,20,18,21,1.20
2018,02,20,18,22,1.20
2018,02,20,18,23,1.20
2018,02,20,18,24,1.10
2018,02,20,18,25,1.10
2018,02,20,18,26,1.10
2018,02,20,18,27,1.10
2018,02,20,18,28,1.10
2018,02,20,18,29,1.10
2018,02,20,18,30,1.00
2018,02,20,18,31,1.00
2018,02,20,18,32,1.00
2018,02,20,18,33,1.00
2018,02,20,18,34,1.00
2018,02,20,18,35,1.00
2018,02,20,18,36,0.90
2018,02,20,18,37,1.00
2018,02,20,18,38,0.90
2018,02,20,18,39,0.90
2018,02,20,18,40,0.90
2018,02,20,18,41,0.90
2018,02,20,18,42,0.90
2018,02,20,18,43,0.90
2018,02,20,18,44,0.90
2018,02,20,18,45,0.90
2018,02,20,18,46,0.90
2018,02,20,18,47,0.90
2018,02,20,18,48,0.90
2018,02,20,18,49,0.90
2018,02,20,18,50,0.90
2018,02,20,18,51,0.90
2018,02,20,18,52,0.90
2018,02,20,18,53,0.90
2018,02,20,18,54,0.90
2018,02,20,18,55,0.90
2018,02,20,18,56,0.90
2018,02,20,18,57,0.90
2018,02,20,18,58,0.90
2018,02,20,18,59,0.90
2018,02,20,19,00,0.90
2018,02,20,19,01,0.90
2018,02,20,19,02,0.80
2018,02,20,19,03,0.80
2018,02,20,19,04,0.80
2018,02,20,19,05,0.80
2018,02,20,19,06,0.80
2018,02,20,19,07,0.80
2018,02,20,19,08,0.70
2018,02,20,19,09,0.70
2018,02,20,19,10,0.70
2018,02,20,19,11,0.70
2018,02,20,19,12,0.60
2018,02,20,19,13,0.60
2018,02,20,19,14,0.60
2018,02,20,19,15,0.60
2018,02,20,19,16,0.60
2018,02,20,19,17,0.60
2018,02,20,19,18,0.60
2018,02,20,19,19,0.50
2018,02,20,19,20,0.50
2018,02,20,19,21,0.50
2018,02,20,19,22,0.50
2018,02,20,19,23,0.50
2018,02,20,19,24,0.50
2018,02,20,19,25,0.50
2018,02,20,19,26,0.50
2018,02,20,19,27,0.50
2018,02,20,19,28,0.50
2018,02,20,19,29,0.40
2018,02,20,19,30,0.40
2018,02,20,19,31,0.40
2018,02,20,19,32,0.40
2018,02,20,19,33,0.40
2018,02,20,19,34,0.40
2018,02,20,19,35,0.40
2018,02,20,19,36,0.40
2018,02,20,19,37,0.50
2018,02,20,19,38,0.50
2018,02,20,19,39,0.50
2018,02,20,19,40,0.50
2018,02,20,19,41,0.60
2018,02,20,19,42,0.60
2018,02,20,19,43,0.60
2018,02,20,19,44,0.60
2018,02,20,19,45,0.60
2018,02,20,19,46,0.60
2018,02,20,19,47,0.60
2018,02,20,19,48,0.60
2018,02,20,19,49,0.60
2018,02,20,19,50,0.60
2018,02,20,19,51,0.60
2018,02,20,19,52,0.60
2018,02,20,19,53,0.60
2018,02,20,19,54,0.60
2018,02,20,19,55,0.60
2018,02,20,19,56,0.60
2018,02,20,19,57,0.60
2018,02,20,19,58,0.60
2018,02,20,19,59,0.60
2018,02,20,20,00,0.60
2018,02,20,20,01,0.60
2018,02,20,20,02,0.60
2018,02,20,20,03,0.60
2018,02,20,20,04,0.60
2018,02,20,20,05,0.60
2018,02,20,20,06,0.60
2018,02,20,20,07,0.60
2018,02,20,20,08,0.60
2018,02,20,20,09,0.60
2018,02,20,20,10,0.60
2018,02,20,20,11,0.60
2018,02,20,20,12,0.60
2018,02,20,20,13,0.60
2018,02,20,20,14,0.60
2018,02,20,20,15,0.60
2018,02,20,20,16,0.60
2018,02,20,20,17,0.60
2018,02,20,20,18,0.60
2018,02,20,20,19,0.60
2018,02,20,20,20,0.60
2018,02,20,20,21,0.60
2018,02,20,20,22,0.60
2018,02,20,20,23,0.60
2018,02,20,20,24,0.60
2018,02,20,20,25,0.60
2018,02,20,20,42,0.70
2018,02,20,20,43,0.70
2018,02,20,20,44,0.60
2018,02,20,20,45,0.70
2018,02,20,20,46,0.70
2018,02,20,20,47,0.70
2018,02,20,20,48,0.70
2018,02,20,20,49,0.70
2018,02,20,20,50,0.70
2018,02,20,20,51,0.70
2018,02,20,20,52,0.70
2018,02,20,20,53,0.70
2018,02,20,20,54,0.80
2018,02,20,20,55,0.80
2018,02,20,20,56,0.80
2018,02,20,20,57,0.80
2018,02,20,20,58,0.90
2018,02,20,20,59,0.90
2018,02,20,21,00,0.90
2018,02,20,21,01,1.00
2018,02,20,21,02,1.00
2018,02,20,21,03,1.00
2018,02,20,21,04,1.10
2018,02,20,21,05,1.10
2018,02,20,21,06,1.20
2018,02,20,21,07,1.20
2018,02,20,21,08,1.20
2018,02,20,21,09,1.30
2018,02,20,21,10,1.30
2018,02,20,21,11,1.30
2018,02,20,21,12,1.40
2018,02,20,21,13,1.40
2018,02,20,21,14,1.40
2018,02,20,21,15,1.40
2018,02,20,21,16,1.40
2018,02,20,21,17,1.40
2018,02,20,21,18,1.40
2018,02,20,21,19,1.40
2018,02,20,21,20,1.40
2018,02,20,21,21,1.40
2018,02,20,21,22,1.40
2018,02,20,21,23,1.40
2018,02,20,21,24,1.40
2018,02,20,21,25,1.40
2018,02,20,21,26,1.40
2018,02,20,21,27,1.40
2018,02,20,21,28,1.40
2018,02,20,21,29,1.40
2018,02,20,21,30,1.40
2018,02,20,21,31,1.40
2018,02,20,21,32,1.40
2018,02,20,21,33,1.40
2018,02,20,21,34,1.40
2018,02,20,21,35,1.40
2018,02,20,21,36,1.30
2018,02,20,21,37,1.30
2018,02,20,21,38,1.30
2018,02,20,21,39,1.30
2018,02,20,21,40,1.30
2018,02,20,21,41,1.30
2018,02,20,21,42,1.30
2018,02,20,21,43,1.30
2018,02,20,21,44,1.30
2018,02,20,21,45,1.30
2018,02,20,21,46,1.30
2018,02,20,21,47,1.30
2018,02,20,21,48,1.30
2018,02,20,21,49,1.30
2018,02,20,21,50,1.30
2018,02,20,21,51,1.30
2018,02,20,21,52,1.30
2018,02,20,21,53,1.20
2018,02,20,21,54,1.20
2018,02,20,21,55,1.20
2018,02,20,21,56,1.20
2018,02,20,21,57,1.20
2018,02,20,21,58,1.20
2018,02,20,21,59,1.20
2018,02,20,22,00,1.20
2018,02,20,22,01,1.20
2018,02,20,22,02,1.20
2018,02,20,22,03,1.20
2018,02,20,22,04,1.20
2018,02,20,22,05,1.20
2018,02,20,22,06,1.20
2018,02,20,22,07,1.10
2018,02,20,22,08,1.10
2018,02,20,22,09,1.10
2018,02,20,22,10,1.10
2018,02,20,22,11,1.10
2018,02,20,22,12,1.10
2018,02,20,22,13,1.10
2018,02,20,22,14,1.10
2018,02,20,22,15,1.10
2018,02,20,22,16,1.10
2018,02,20,22,17,1.10
2018,02,20,22,18,1.10
2018,02,20,22,19,1.10
2018,02,20,22,20,1.10
2018,02,20,22,21,1.10
2018,02,20,22,22,1.10
2018,02,20,22,23,1.10
2018,02,20,22,24,1.10
2018,02,20,22,25,1.10
2018,02,20,22,26,1.00
2018,02,20,22,27,1.00
2018,02,20,22,28,1.10
2018,02,20,22,29,1.10
2018,02,20,22,30,1.10
2018,02,20,22,31,1.10
2018,02,20,22,32,1.10
2018,02,20,22,33,1.10
2018,02,20,22,34,1.10
2018,02,20,22,35,1.10
2018,02,20,22,36,1.10
2018,02,20,22,37,1.10
2018,02,20,22,38,1.10
2018,02,20,22,39,1.10
2018,02,20,22,40,1.00
2018,02,20,22,41,1.00
2018,02,20,22,42,1.10
2018,02,20,22,43,1.10
2018,02,20,22,44,1.10
2018,02,20,22,45,1.10
2018,02,20,22,46,1.10
2018,02,20,22,47,1.10
2018,02,20,22,48,1.10
2018,02,20,22,49,1.10
2018,02,20,22,50,1.10
2018,02,20,22,51,1.10
2018,02,20,22,52,1.10
2018,02,20,22,53,1.10
2018,02,20,22,54,1.10
2018,02,20,22,55,1.10
2018,02,20,22,56,1.10
2018,02,20,22,57,1.10
2018,02,20,22,58,1.10
2018,02,20,22,59,1.10
2018,02,20,23,00,1.10
2018,02,20,23,01,1.10
2018,02,20,23,02,1.00
2018,02,20,23,03,1.00
2018,02,20,23,04,1.00
2018,02,20,23,05,0.90
2018,02,20,23,06,0.90
2018,02,20,23,07,0.90
2018,02,20,23,08,0.90
2018,02,20,23,09,0.90
2018,02,20,23,10,0.90
2018,02,20,23,11,0.90
2018,02,20,23,12,0.90
2018,02,20,23,13,0.90
2018,02,20,23,14,0.90
2018,02,20,23,15,0.90
2018,02,20,23,16,0.90
2018,02,20,23,17,0.90
2018,02,20,23,18,0.90
2018,02,20,23,19,0.90
2018,02,20,23,20,0.90
2018,02,20,23,21,0.90
2018,02,20,23,22,0.90
2018,02,20,23,23,0.90
2018,02,20,23,24,0.90
2018,02,20,23,25,0.90
2018,02,20,23,26,0.90
2018,02,20,23,27,0.90
2018,02,20,23,28,0.80
2018,02,20,23,29,0.80
2018,02,20,23,30,0.80
2018,02,20,23,31,0.80
2018,02,20,23,32,0.80
2018,02,20,23,33,0.80
2018,02,20,23,34,0.80
2018,02,20,23,35,0.80
2018,02,20,23,36,0.80
2018,02,20,23,37,0.80
2018,02,20,23,38,0.80
2018,02,20,23,39,0.80
2018,02,20,23,40,0.80
2018,02,20,23,41,0.80
2018,02,20,23,42,0.80
2018,02,20,23,43,0.80
2018,02,20,23,44,0.80
2018,02,20,23,45,0.80
2018,02,20,23,46,0.80
2018,02,20,23,47,0.70
2018,02,20,23,48,0.70
2018,02,20,23,49,0.70
2018,02,20,23,50,0.70
2018,02,20,23,51,0.70
2018,02,20,23,52,0.70
2018,02,20,23,53,0.70
2018,02,20,23,54,0.70
2018,02,20,23,55,0.70
2018,02,20,23,56,0.60
2018,02,20,23,57,0.70
2018,02,20,23,58,0.60
2018,02,20,23,59,0.70
